Tracking 33446 objects as of 10-Mar-2026
HD Live streaming from Space Station
objects crossing your sky now

STARLINK-35350

Track STARLINK-35350 now!
10-day predictions
STARLINK-35350 is classified as:


NORAD ID: 66187
Int'l Code: 2025-243L
Perigee: 481.8 km
Apogee: 483.0 km
Inclination: 53.2 °
Period: 94.1 minutes
Semi major axis: 6853 km
RCS: Unknown
Launch date: October 26, 2025
Source: United States (US)
Launch site: AIR FORCE EASTERN TEST RANGE (AFETR)
Your satellite tracking list
Your tracking list is empty




NASA's NSSDC Master Catalog

Two Line Element Set (TLE):
1 66187U 25243L   26068.71342950  .00027287  00000-0  93008-3 0  9996
2 66187  53.1578 245.4147 0000871  89.8778 270.2322 15.30198438 20652
Source of the keplerian elements: AFSPC